[[{"header":{"parameterUnit":"m.s-1","parameterCategory":1,"la1":30.2992,"la2":30.254,"lo1":-89.0895,"lo2":-89.0443,"dy":0.0025,"dx":0.0025,"nx":19,"ny":19,"refTime":"2026-04-16T03:00:00:Z","depth":0,"parameterNumber":2,"parameterNumberName":"U-component_of_WINDS"},"data":[0,0,0,1.4703,1.4705,1.4786,1.4786,1.49,1.4901,0,0,0,0,0,0,0,0,0,0,0,1.4686,1.4688,1.4703,1.4705,1.4786,1.4786,1.49,1.4901,0,0,0,0,0,0,0,0,0,0,0,1.4686,1.4687,1.4689,1.4706,1.4786,1.4786,1.4899,1.4835,0,0,0,0,0,0,0,0,0,0,1.4754,1.4746,1.4687,1.4689,1.4706,1.4786,1.4786,1.4831,1.4839,1.4868,0,1.4897,0,1.4901,1.4909,1.491,0,0,0,1.47,1.474,1.4755,1.4689,1.4707,1.4786,1.4748,1.4835,1.4844,1.4878,1.4898,1.4902,1.4903,1.491,1.4911,1.5099,1.51,0,0,1.4695,1.4705,1.475,1.4761,1.475,1.4745,1.4751,1.484,1.4863,1.4899,1.4905,1.4905,1.4911,1.4912,1.5098,1.5099,0,0,0,1.4686,1.4702,1.4715,1.4757,1.4771,1.4748,1.4754,1.4859,1.4862,1.4906,1.4906,1.4912,1.4913,1.5096,1.5098,1.5163,0,0,0,1.4683,1.4697,1.4713,1.472,1.4769,1.4816,1.4771,1.4856,1.4866,1.4905,1.4912,1.4914,1.5095,1.5097,1.5158,1.5192,0,0,0,1.4679,1.4696,1.471,1.472,1.4755,1.4814,1.4823,1.4858,1.4866,1.491,1.4915,1.5094,1.5097,1.5154,1.5185,1.5243,0,0,0,1.4677,1.4768,1.4712,1.4813,1.4755,1.4854,1.4822,1.4896,1.4941,1.4912,1.5095,1.5098,1.5153,1.5181,1.5239,1.5292,1.5316,0,0,1.4797,1.4783,1.4841,1.4793,1.4905,1.4841,1.4962,1.4995,1.499,1.5062,1.5067,1.516,1.5185,1.5242,1.5447,1.5465,0,0,0,1.4883,1.4925,1.4953,1.4996,1.5023,1.5048,1.506,1.5072,1.5133,1.503,1.5197,1.5211,1.5244,1.5269,1.5285,1.5312,1.511,1.511,1.511,1.5067,1.5055,1.5151,1.5149,1.5191,1.5203,1.5235,1.5253,1.523,1.5269,1.529,1.5416,1.5446,1.5458,1.5486,1.5319,1.5319,1.5319,1.5319,1.524,1.5297,1.5263,1.5344,1.5331,1.5398,1.5412,1.5393,1.5453,1.54,1.5428,1.537,1.5479,1.5503,1.5324,1.5323,1.5323,1.5322,1.5322,1.5358,1.5384,1.5396,1.5456,1.5504,1.5498,1.5557,1.5543,1.553,1.5559,1.5578,1.5577,1.5573,1.5569,1.557,1.557,1.5571,1.5571,1.5571,1.5475,1.5487,1.5539,1.5574,1.5598,1.5629,1.5641,1.5664,1.5687,1.5672,1.5672,1.5644,1.5492,1.5454,1.5578,1.5577,1.5576,1.5575,1.5575,1.5654,1.5611,1.569,1.5715,1.5754,1.58,1.5782,1.5831,1.5849,1.5878,1.5843,1.5734,1.5718,1.5705,1.5673,1.5846,1.5846,1.5847,1.5847,1.5752,1.5743,1.5819,1.586,1.5898,1.5889,1.5977,1.5986,1.5988,1.5998,1.5971,1.5927,1.5915,1.5906,1.5889,1.5859,1.6076,1.6076,1.6076,1.586,1.5853,1.5932,1.5934,1.5962,1.5987,1.6068,1.6115,1.6109,1.6085,1.6005,1.5995,1.5924,1.5902,1.5876,1.585,1.5794,0,0]},{"header":{"parameterUnit":"m.s-1","parameterCategory":1,"la1":30.2992,"la2":30.254,"lo1":-89.0895,"lo2":-89.0443,"dy":0.0025,"dx":0.0025,"nx":19,"ny":19,"refTime":"2026-04-16T03:00:00:Z","depth":0,"parameterNumber":3,"parameterNumberName":"V-component_of_WINDS"},"data":[0,0,0,3.6479,3.6482,3.6649,3.665,3.6848,3.685,0,0,0,0,0,0,0,0,0,0,0,3.6426,3.6427,3.6478,3.6483,3.6649,3.665,3.6848,3.685,0,0,0,0,0,0,0,0,0,0,0,3.6425,3.6427,3.6428,3.6483,3.6649,3.665,3.6848,3.6726,0,0,0,0,0,0,0,0,0,0,3.6566,3.6515,3.6426,3.6428,3.6484,3.6649,3.665,3.672,3.6733,3.6768,0,3.6803,0,3.683,3.6863,3.6864,0,0,0,3.6484,3.6504,3.6553,3.6429,3.6486,3.6648,3.6574,3.6728,3.6743,3.6786,3.6806,3.6814,3.6834,3.6864,3.6865,3.7075,3.7075,0,0,3.6474,3.6453,3.6542,3.6562,3.6542,3.6569,3.6579,3.6737,3.6755,3.6807,3.6819,3.6837,3.6865,3.6867,3.7074,3.7075,0,0,0,3.6447,3.6446,3.6491,3.6554,3.6585,3.6574,3.6586,3.6748,3.6765,3.6821,3.6839,3.6867,3.6869,3.7073,3.7074,3.71,0,0,0,3.6442,3.643,3.6487,3.6475,3.6582,3.667,3.6593,3.6754,3.6773,3.6838,3.6867,3.6871,3.7072,3.7074,3.7097,3.7114,0,0,0,3.6416,3.6427,3.6451,3.6474,3.6545,3.6668,3.6694,3.6759,3.6784,3.6864,3.6871,3.7071,3.7073,3.7095,3.711,3.7163,0,0,0,3.6381,3.6469,3.6451,3.6556,3.6544,3.6685,3.6693,3.6798,3.687,3.6868,3.7072,3.7074,3.7094,3.7108,3.716,3.7202,3.7219,0,0,3.648,3.648,3.6544,3.6533,3.6672,3.6661,3.6802,3.6886,3.6911,3.7017,3.7023,3.7098,3.711,3.7162,3.7319,3.7332,0,0,0,3.6568,3.6613,3.6655,3.6725,3.6794,3.6854,3.6919,3.695,3.7042,3.6963,3.7132,3.714,3.7171,3.7192,3.7203,3.723,3.7083,3.7083,3.7083,3.6675,3.6706,3.6813,3.6864,3.6931,3.6999,3.7054,3.7106,3.7115,3.7155,3.7186,3.7278,3.7302,3.7311,3.7339,3.7212,3.7212,3.7212,3.7212,3.6821,3.689,3.6903,3.7012,3.7042,3.7132,3.7199,3.7202,3.7287,3.7257,3.7286,3.725,3.7324,3.735,3.7215,3.7214,3.7214,3.7214,3.7214,3.6893,3.6932,3.6971,3.7075,3.7151,3.7198,3.728,3.7304,3.7326,3.7355,3.739,3.7389,3.739,3.7371,3.7371,3.7371,3.7371,3.7372,3.7372,3.6952,3.6996,3.7065,3.7147,3.7194,3.726,3.7328,3.7374,3.743,3.7441,3.7441,3.7444,3.7327,3.7296,3.7377,3.7376,3.7375,3.7375,3.7375,3.7086,3.706,3.7166,3.7215,3.7312,3.7384,3.7415,3.7506,3.7547,3.7586,3.7584,3.7494,3.7495,3.7486,3.746,3.7579,3.7579,3.7579,3.7579,3.7145,3.715,3.7264,3.7339,3.7415,3.7454,3.7568,3.7621,3.7671,3.7697,3.7684,3.7652,3.7643,3.7649,3.7637,3.7613,3.7768,3.7768,3.7768,3.7228,3.7242,3.7336,3.739,3.7468,3.7532,3.764,3.7721,3.7771,3.7776,3.7718,3.771,3.7659,3.7642,3.7643,3.7624,3.758,0,0]}]]